This is the latest recevied weather packets stored in our database for station/object KQ4NAL. If no packets are shown the sender has not sent any weather packets the latest 10 day(s).
| Time | Temp. | Humidity | Pressure | Rain* | Wind** | Luminosity | Snow |
|---|---|---|---|---|---|---|---|
| 1778111209 | 13.89° C | 58% | 1014.7 hPa | 0 mm | - | 68 W/m² | - |
| 1778110905 | 14.44° C | 58% | 1014.6 hPa | 0 mm | - | 81 W/m² | - |
| 1778110603 | 14.44° C | 56% | 1014.2 hPa | 0 mm | - | 88 W/m² | - |
| 1778110300 | 14.44° C | 57% | 1014.1 hPa | 0 mm | - | 96 W/m² | - |
| 1778109996 | 14.44° C | 58% | 1014.2 hPa | 0 mm | - | 95 W/m² | - |
| 1778109691 | 14.44° C | 57% | 1014.2 hPa | 0 mm | - | 95 W/m² | - |
| 1778109389 | 14.44° C | 56% | 1014.2 hPa | 0 mm | - | 95 W/m² | - |
| 1778109087 | 14.44° C | 56% | 1014.1 hPa | 0 mm | - | 132 W/m² | - |
| 1778108784 | 14.44° C | 56% | 1014.2 hPa | 0 mm | - | 146 W/m² | - |
| 1778108481 | 14.44° C | 56% | 1013.9 hPa | 0 mm | - | 133 W/m² | - |
| 1778108177 | 14.44° C | 56% | 1013.8 hPa | 0 mm | - | 124 W/m² | - |
| 1778107874 | 14.44° C | 56% | 1013.9 hPa | 0 mm | - | 156 W/m² | - |
| 1778107570 | 14.44° C | 55% | 1013.8 hPa | 0 mm | - | 104 W/m² | - |
| 1778107267 | 14.44° C | 54% | 1013.9 hPa | 0 mm | - | 98 W/m² | - |
| 1778106963 | 14.44° C | 56% | 1014.1 hPa | 0 mm | - | 114 W/m² | - |
| 1778106659 | 14.44° C | 55% | 1014.2 hPa | 0 mm | - | 117 W/m² | - |
| 1778106356 | 15° C | 55% | 1014.3 hPa | 0 mm | - | 111 W/m² | - |
| 1778106052 | 15° C | 56% | 1014.3 hPa | 0 mm | - | 117 W/m² | - |
| 1778105750 | 15° C | 55% | 1014.2 hPa | 0 mm | - | 127 W/m² | - |
| 1778105448 | 15° C | 54% | 1014.3 hPa | 0 mm | - | 138 W/m² | - |
| 1778105144 | 15.56° C | 55% | 1014.4 hPa | 0 mm | - | 147 W/m² | - |
| 1778104839 | 15.56° C | 54% | 1014.4 hPa | 0 mm | - | 152 W/m² | - |
| 1778104537 | 15.56° C | 56% | 1014.7 hPa | 0 mm | - | 172 W/m² | - |
| 1778104232 | 15.56° C | 56% | 1014.5 hPa | 0 mm | - | 204 W/m² | - |
| 1778103929 | 15.56° C | 54% | 1014.5 hPa | 0 mm | - | 201 W/m² | - |
* Rain latest hour (hover to see other rain measurements)
** Current wind speed in m/s (hover to see current wind gust speed)